{"data":{"norad_id":59616,"epoch":"2026-09-21T14:25:56.486208Z","epoch_age_seconds":73062,"freshness":"FRESH","line1":"1 59616U 24080R   26264.60134822 -.00002232  00000+0 -71555-4 0  9994","line2":"2 59616  43.0029  11.6027 0001158 268.8279  91.2440 15.27597395134495","mean_motion":15.27597395,"eccentricity":0.0001158,"inclination_deg":43.0029,"raan_deg":11.6027,"arg_perigee_deg":268.8279,"mean_anomaly_deg":91.244,"bstar":-7.1555e-5,"rev_number":13449,"period_min":94.265675282852,"perigee_km":482.20249032779,"apogee_km":483.79152896442,"semimajor_km":6861.1340096461,"source":"CELESTRAK","updated_at":"2026-09-22T09:00:49.012877Z"}}